Regional Weather Roundup
Issued by NWS Kansas City/Pleasant Hill, MO

Home | Current Version | Previous Version | Graphics & Text | Print | Product List | Glossary Off
Versions: 1 2 3 4 5 6 7 8 9 10 11 12 13 14 15 16 17 18 19 20 21 22 23 24 25 26 27 28 29 30 31 32 33 34 35 36 37 38 39 40 41 42 43 44 45 46 47 48 49 50

000
ASUS43 KEAX 310610
RWREAX

WEATHER ROUNDUP FOR EASTERN KANSAS AND NORTHWEST MISSOURI
NATIONAL WEATHER SERVICE KANSAS CITY/PLEASANT HILL MO
100 AM CDT FRI JUL 31 2015

KSZ040-057-103>105-MOZ028-029-037-043-310700-
...KANSAS CITY METROPOLITAN AREA...

CITY           SKY/WX    TMP DP  RH WIND       PRES   REMARKS
K.C. INTL      PTCLDY    72  60  66 SE3       30.17S
6HR MIN TEMP:  72; 6HR MAX TEMP:  83;

K.C. DOWNTOWN  CLEAR     71  67  87 CALM      30.16S
6HR MIN TEMP:  69; 6HR MAX TEMP:  85;

LEES SUMMIT    CLEAR     70  61  73 CALM      30.18S
6HR MIN TEMP:  68; 6HR MAX TEMP:  84;

OLATHE - IXD   CLEAR     66  61  84 CALM      30.18S
6HR MIN TEMP:  65; 6HR MAX TEMP:  84;

OLATHE - OJC   CLEAR     69  60  73 CALM      30.17S
6HR MIN TEMP:  68; 6HR MAX TEMP:  82;

LAWRENCE       CLEAR     62  61  96 CALM      30.17S

$$

MOZ001>008-011>017-020>025-030>033-038>040-044>046-053-054-310700-
...NORTHERN AND CENTRAL MISSOURI...

CITY           SKY/WX    TMP DP  RH WIND       PRES   REMARKS
ST. JOSEPH     CLEAR     69  67  93 CALM      30.16R
6HR MIN TEMP:  69; 6HR MAX TEMP:  84;

MOSBY          CLEAR     66  66 100 CALM      30.17S
WARRENSBURG    CLEAR     66  64  94 CALM      30.16F
WHITEMAN AFB   CLEAR     67  64  88 CALM      30.16S
6HR MIN TEMP:  67; 6HR MAX TEMP:  86;

CLINTON        CLEAR     66  64  94 CALM      30.17S
SEDALIA        CLEAR     71  62  73 SW3       30.18R
6HR MIN TEMP:  71; 6HR MAX TEMP:  85;

WARSAW         NOT AVBL
CHILLICOTHE      N/A     69  67  93 CALM      30.17R
6HR MIN TEMP:  69; 6HR MAX TEMP:  87;

KIRKSVILLE     CLEAR     72  64  76 SW6       30.15S
6HR MIN TEMP:  67; 6HR MAX TEMP:  84; 6HR PCP: TRACE;


$$

MOZ041-047>049-056>058-063>065-088>090-097-310700-
...EASTERN AND SOUTHERN MISSOURI...

CITY           SKY/WX    TMP DP  RH WIND       PRES   REMARKS
ST. LOUIS INTL PTCLDY    75  65  70 W7        30.13R
6HR MIN TEMP:  75; 6HR MAX TEMP:  87;

SPIRIT OF STL  CLEAR     70  69  97 CALM      30.12R
COLUMBIA       CLEAR     70  67  90 W3        30.17R
JEFFERSON CITY CLEAR     68  66  93 CALM      30.15S
ROLLA          FOG       65  62  90 SW3       30.17R VSB 3/4
OSAGE BEACH    CLEAR     66  63  88 CALM      30.18S
SPRINGFIELD    CLEAR     72  62  71 SE3       30.17S
BRANSON        CLEAR     68  64  88 CALM      30.18F
JOPLIN         MOCLDY    73  67  81 CALM      30.16S
WEST PLAINS    CLEAR     65  62  90 CALM      30.19R

$$

IAZ060-094-KSZ022-034>040-054-083-096-NEZ052-066-093-310700-
...KANSAS...SOUTHEAST NEBRASKA AND IOWA...

CITY           SKY/WX    TMP DP  RH WIND       PRES   REMARKS
TOPEKA         CLEAR     68  66  93 CALM      30.17S
6HR MIN TEMP:  68; 6HR MAX TEMP:  84; 6HR PCP: TRACE;

MANHATTAN      CLEAR     67  66  97 CALM      30.16S
EMPORIA        CLEAR     67  65  93 S5        30.17S
CHANUTE        PTCLDY    69  65  86 E3        30.16S
WICHITA        PTCLDY    74  67  78 SE5       30.16F
OMAHA          PTCLDY    74  66  76 SE6       30.14R
LINCOLN        CLEAR     70  61  73 SE3       30.15S
FALLS CITY     PTCLDY    71  64  78 SW7       30.15S
LAMONI         CLEAR     72  63  73 SW7       30.15S
DES MOINES     CLEAR     73  65  75 W3        30.12R

$$




USA.gov is the U.S. government's official web portal to all federal, state and local government web resources and services.